Regional Weather Roundup
Issued by NWS

Home | Current Version | Previous Version | Text Only | Print | Product List | Glossary On
Versions: 1 2 3 4 5 6 7 8 9 10 11 12 13 14 15 16 17 18 19 20 21 22 23 24 25 26 27 28 29 30 31 32 33 34 35 36 37 38 39 40 41 42 43 44 45 46 47 48 49 50
000
ASUS43 KBIS 240410
RWRND

NORTH DAKOTA REGIONAL WEATHER ROUNDUP
NATIONAL WEATHER SERVICE BISMARCK ND
1000 PM CST MON JAN 23 2017

NOTE: "FAIR" INDICATES FEW OR NO CLOUDS BELOW 12,000 FEET WITH NO
SIGNIFICANT WEATHER AND/OR OBSTRUCTIONS TO VISIBILITY.


NDZ001>003-009>011-017-240500-
NORTHWEST NORTH DAKOTA

CITY           SKY/WX    TMP DP  RH WIND       PRES   REMARKS
WILLISTON      CLOUDY    22  19  89 W5        29.82F WCI  16
MINOT          CLOUDY    24  17  74 W16       29.79F WCI  11
MINOT AFB      CLOUDY    22  17  83 W12       29.79S WCI  10
$$

NDZ018>021-031>035-040>046-240500-
SOUTHWEST NORTH DAKOTA

CITY           SKY/WX    TMP DP  RH WIND       PRES   REMARKS
BISMARCK       CLOUDY    30  25  81 N3        29.83R
DICKINSON      CLOUDY    23  21  92 SW7       29.77R WCI  15
GARRISON         N/A     20  17  88 W7        29.80S WCI  11
HETTINGER ARPT FOG       21  20  96 CALM      29.80R VSB 1/4
$$

NDZ004>008-012>016-024-026-027-054-240500-
NORTHEAST NORTH DAKOTA

CITY           SKY/WX    TMP DP  RH WIND       PRES   REMARKS
GRAND FORKS    CLOUDY    27  20  75 W12       29.83R WCI  17
GRND FRKS AFB  CLOUDY    26  20  79 NW12      29.83R WCI  15
DEVILS LAKE    CLOUDY    22  19  89 W12       29.80S WCI  10
$$

NDZ022-023-025-028>030-036>039-047>053-240500-
SOUTHEAST NORTH DAKOTA

CITY           SKY/WX    TMP DP  RH WIND       PRES   REMARKS
FARGO          CLOUDY    33  26  75 W3        29.84R
JAMESTOWN      CLOUDY    28  24  85 W6        29.81R
$$





USA.gov is the U.S. government's official web portal to all federal, state and local government web resources and services.